[[{"header":{"parameterUnit":"m.s-1","parameterCategory":1,"la1":30.2991,"la2":30.254,"lo1":-89.0895,"lo2":-89.0444,"dy":0.0017,"dx":0.0017,"nx":28,"ny":28,"refTime":"2024-06-04T09:00:00:Z","depth":0,"parameterNumber":2,"parameterNumberName":"U-component_of_WINDS"},"data":[0,0,0,0,0,0,0,0,0,0,0,0,0,0,0,0,0,0,0,0,0,0,0,0,0,0,0,0,0,0,0,0,0,0,0,0,0,0,0,0,0,0,0,0,0,0,0,0,0,0,0,0,0,0,0,0,0,0,3.3506,3.3505,0,3.3406,3.3405,3.3404,3.3299,3.3298,3.3296,3.3295,3.3194,3.3193,3.3192,0,0,0,0,0,0,0,0,0,0,0,0,0,3.3604,3.3603,3.3506,3.3505,3.3503,3.3406,3.3405,3.3404,3.3299,3.3298,3.3296,3.3294,3.3195,3.3193,3.3192,0,0,0,0,0,0,0,0,0,0,0,0,0,3.3539,3.3603,3.3506,3.344,3.3433,3.3407,3.3405,3.3403,3.33,3.3298,3.3295,3.3293,3.3195,3.3193,3.3191,3.3223,0,0,3.3185,3.3185,0,0,0,0,0,0,0,0,3.3543,3.3535,3.3451,3.3444,3.3436,3.3363,3.3403,3.3343,3.33,3.335,3.3295,3.3292,3.3252,3.3245,3.3232,3.3218,3.3214,3.3185,3.3184,3.3183,3.3183,0,0,0,0,0,0,0,3.3548,3.3539,3.3466,3.3449,3.3441,3.3414,3.3403,3.3391,3.3315,3.3346,3.3338,3.3328,3.3248,3.3234,3.3228,3.3213,3.3185,3.3184,3.3182,3.3182,3.3215,3.3217,0,0,0,0,0,0,3.3562,3.3544,3.3469,3.3463,3.3485,3.3414,3.3401,3.3389,3.3315,3.3301,3.333,3.3323,3.3238,3.3231,3.3225,3.3253,3.3183,3.3181,3.318,3.3213,3.3216,3.3218,0,0,0,0,0,0,3.3565,3.3557,3.3473,3.3501,3.3489,3.3415,3.3402,3.3388,3.3373,3.3302,3.3288,3.3329,3.3236,3.3227,3.3223,3.3248,3.318,3.3179,3.3211,3.3214,3.3217,3.3313,0,0,0,0,0,0,3.3568,3.3558,3.357,3.3502,3.3488,3.3474,3.3403,3.3387,3.337,3.3361,3.3298,3.3286,3.3234,3.3226,3.3221,3.3244,3.3177,3.3208,3.3212,3.3216,3.3307,3.3319,3.3329,0,0,0,0,0,3.3572,3.3602,3.3571,3.3563,3.3501,3.3476,3.3468,3.3407,3.3373,3.3383,3.3337,3.3288,3.3247,3.3227,3.322,3.3243,3.3206,3.3211,3.3216,3.3302,3.3316,3.3328,0,0,0,0,0,0,3.3676,3.3592,3.3557,3.3566,3.3529,3.3458,3.347,3.3425,3.3397,3.3389,3.3315,3.3302,3.3305,3.3274,3.3254,3.3267,3.3219,3.3223,3.3287,3.33,3.3311,3.3317,3.3175,0,0,0,0,0,3.37,3.3687,3.3614,3.363,3.3612,3.3545,3.3532,3.3488,3.3447,3.343,3.3384,3.3346,3.3323,3.3311,3.3287,3.3302,3.3285,3.3314,3.3325,3.3335,3.3338,3.3339,3.335,3.3233,3.3233,3.3233,0,0,3.3749,3.3702,3.3698,3.3649,3.3615,3.3602,3.3532,3.3523,3.3511,3.3429,3.342,3.3385,3.3338,3.3342,3.3342,3.3316,3.3366,3.3341,3.3349,3.3346,3.3345,3.3356,3.3366,3.3237,3.3236,3.3235,0,0,3.3831,3.3796,3.3802,3.3769,3.3718,3.3672,3.3674,3.361,3.3582,3.3573,3.3509,3.3495,3.346,3.3427,3.3406,3.3473,3.3425,3.3468,3.3524,3.3526,3.3535,3.3543,3.3563,3.3572,3.3471,3.3472,3.3472,0,3.3899,3.3877,3.3812,3.3804,3.3783,3.3707,3.3712,3.3683,3.3627,3.3614,3.3586,3.3537,3.35,3.3493,3.3509,3.3496,3.3493,3.3473,3.3539,3.3546,3.3553,3.3571,3.3579,3.3477,3.3476,3.3476,3.3475,0,3.3961,3.3946,3.3958,3.3903,3.3884,3.3884,3.3817,3.3805,3.3763,3.3719,3.3709,3.3661,3.3624,3.362,3.358,3.3607,3.3592,3.3553,3.3503,3.357,3.3586,3.3592,3.3484,3.3482,3.3481,3.348,0,0,3.4105,3.4013,3.4018,3.3991,3.3928,3.3915,3.391,3.3873,3.3862,3.3826,3.3818,3.3788,3.375,3.3726,3.3681,3.3684,3.3735,3.3643,3.3641,3.3659,3.3757,3.3785,3.3794,3.3704,3.3705,3.3706,3.376,0,3.4174,3.4159,3.4099,3.4102,3.4085,3.4012,3.4007,3.3967,3.3926,3.3906,3.3861,3.3839,3.3793,3.3777,3.3777,3.3729,3.3753,3.3725,3.3693,3.3693,3.3704,3.3803,3.3833,3.3887,3.3766,3.3767,3.3768,0,3.4252,3.4218,3.4219,3.4153,3.4144,3.4141,3.4099,3.4082,3.4034,3.4004,3.3976,3.3925,3.3913,3.3868,3.3849,3.3831,3.3815,3.3789,3.3789,3.3782,3.3733,3.3795,3.3903,3.391,3.3778,3.3777,3.3776,0,3.4352,3.4308,3.4301,3.4281,3.4205,3.4203,3.4172,3.4122,3.4102,3.4067,3.4052,3.4017,3.3997,3.397,3.3909,3.3883,3.3896,3.3847,3.3868,3.387,3.3873,3.3873,3.3976,3.3868,3.3868,3.3868,3.3868,0,3.4433,3.4435,3.4345,3.4341,3.434,3.4271,3.4272,3.4234,3.4189,3.4175,3.4111,3.4098,3.4021,3.3999,3.3952,3.3941,3.3934,3.3908,3.3894,3.3911,3.3914,3.3898,3.3891,3.387,3.3869,3.3869,3.3868,0,3.4544,3.4484,3.4471,3.44,3.4382,3.4384,3.4322,3.4314,3.427,3.4252,3.4244,3.4173,3.4144,3.4081,3.4036,3.4004,3.4003,3.3982,3.4019,3.401,3.4034,3.4031,3.4128,3.4135,3.4026,3.4027,3.4028,0,3.4598,3.4598,3.4526,3.4511,3.4481,3.446,3.4438,3.437,3.4351,3.4295,3.4293,3.4259,3.4227,3.4184,3.4128,3.4091,3.4067,3.4103,3.4061,3.4077,3.4063,3.4062,3.406,3.4112,3.4113,3.4114,3.4115,0,3.4699,3.4669,3.4641,3.4602,3.4579,3.4545,3.4508,3.4499,3.4422,3.4403,3.4372,3.4348,3.43,3.4265,3.422,3.4186,3.4137,3.4129,3.4131,3.4147,3.4167,3.4153,3.4041,3.4127,3.4126,3.4125,3.4124,3.4124,3.478,3.4775,3.4723,3.4693,3.4658,3.4624,3.4612,3.4564,3.4537,3.4492,3.4454,3.4425,3.4374,3.4309,3.4277,3.4253,3.4229,3.4234,3.4234,3.4235,3.4241,3.4174,3.4245,3.4245,3.4244,3.4244,3.4244,0,3.4874,3.4837,3.481,3.4759,3.4735,3.4692,3.4647,3.463,3.4605,3.4562,3.4532,3.4495,3.446,3.4401,3.4361,3.4352,3.4328,3.4344,3.4342,3.4334,3.4267,3.4267,3.4363,3.4363,3.4363,3.4363,3.4363,3.4363,3.492,3.4908,3.4871,3.484,3.4802,3.4773,3.4751,3.4718,3.4683,3.4644,3.4615,3.4576,3.4525,3.448,3.4446,3.4429,3.4416,3.4438,3.4414,3.4351,3.434,3.4329,3.4328,3.4436,3.4436,3.4482,3.4483,3.4483]},{"header":{"parameterUnit":"m.s-1","parameterCategory":1,"la1":30.2991,"la2":30.254,"lo1":-89.0895,"lo2":-89.0444,"dy":0.0017,"dx":0.0017,"nx":28,"ny":28,"refTime":"2024-06-04T09:00:00:Z","depth":0,"parameterNumber":3,"parameterNumberName":"V-component_of_WINDS"},"data":[0,0,0,0,0,0,0,0,0,0,0,0,0,0,0,0,0,0,0,0,0,0,0,0,0,0,0,0,0,0,0,0,0,0,0,0,0,0,0,0,0,0,0,0,0,0,0,0,0,0,0,0,0,0,0,0,0,0,6.4462,6.4462,0,6.4525,6.4525,6.4526,6.4461,6.4458,6.4456,6.4453,6.4513,6.4516,6.452,0,0,0,0,0,0,0,0,0,0,0,0,0,6.4278,6.4281,6.4462,6.4462,6.4463,6.4525,6.4525,6.4526,6.4461,6.4458,6.4455,6.4452,6.4511,6.4516,6.4521,0,0,0,0,0,0,0,0,0,0,0,0,0,6.4351,6.4283,6.4461,6.4438,6.4437,6.4524,6.4525,6.4526,6.4462,6.4458,6.4454,6.4451,6.451,6.4516,6.4521,6.4633,0,0,6.4539,6.4542,0,0,0,0,0,0,0,0,6.4347,6.4358,6.4441,6.444,6.4439,6.4481,6.4482,6.4562,6.4463,6.4452,6.4453,6.4449,6.4505,6.4511,6.4531,6.4636,6.4639,6.454,6.4543,6.4546,6.4548,0,0,0,0,0,0,0,6.4342,6.4354,6.4486,6.4442,6.4441,6.4422,6.4429,6.4497,6.4499,6.4453,6.4448,6.4457,6.4503,6.4525,6.4532,6.4639,6.454,6.4545,6.4549,6.4551,6.4836,6.484,0,0,0,0,0,0,6.434,6.4351,6.4484,6.4488,6.4383,6.4429,6.4436,6.4471,6.4498,6.4498,6.446,6.4454,6.4517,6.4525,6.4534,6.4664,6.4546,6.4551,6.4555,6.4832,6.4837,6.4841,0,0,0,0,0,0,6.4336,6.4353,6.4482,6.4418,6.4433,6.4436,6.4476,6.4474,6.4496,6.4503,6.4503,6.4483,6.4514,6.4525,6.4609,6.4666,6.4554,6.4559,6.4827,6.4834,6.4839,6.4928,0,0,0,0,0,0,6.4331,6.4352,6.4396,6.442,6.4437,6.4558,6.448,6.4478,6.4507,6.4499,6.4524,6.4525,6.4512,6.46,6.4614,6.4672,6.4564,6.4822,6.483,6.4837,6.492,6.4937,6.4951,0,0,0,0,0,6.4325,6.4418,6.4399,6.4415,6.4493,6.4562,6.4571,6.4557,6.4512,6.4555,6.4559,6.4524,6.4657,6.4609,6.4625,6.4685,6.4819,6.4828,6.4837,6.4914,6.4934,6.495,0,0,0,0,0,0,6.44,6.4421,6.44,6.4504,6.4532,6.4551,6.4605,6.4579,6.4618,6.4609,6.4587,6.4593,6.4681,6.4691,6.4638,6.4793,6.473,6.4743,6.4783,6.4802,6.4817,6.4813,6.4569,0,0,0,0,0,6.4429,6.4485,6.45,6.459,6.4605,6.4603,6.4632,6.4618,6.4646,6.4656,6.4667,6.4693,6.474,6.4772,6.4816,6.4921,6.4924,6.497,6.4985,6.4998,6.5008,6.5062,6.5082,6.4871,6.4871,6.4871,0,0,6.4489,6.4507,6.4544,6.4605,6.4625,6.4681,6.4613,6.4676,6.4717,6.4665,6.4745,6.4753,6.478,6.4875,6.4917,6.4886,6.5067,6.5009,6.5019,6.5023,6.5074,6.5094,6.5111,6.4878,6.4876,6.4875,0,0,6.4626,6.4647,6.4723,6.4744,6.4776,6.4773,6.4792,6.4815,6.4818,6.4898,6.486,6.4907,6.499,6.501,6.5031,6.5174,6.5142,6.5189,6.5268,6.5321,6.5338,6.5352,6.5401,6.5419,6.52,6.52,6.52,0,6.4696,6.4781,6.4765,6.4831,6.4857,6.4815,6.489,6.4911,6.4955,6.4973,6.4938,6.504,6.5055,6.5152,6.5187,6.5207,6.5225,6.5186,6.5337,6.5351,6.5365,6.5411,6.543,6.5206,6.5205,6.5204,6.5204,0,6.4864,6.4924,6.4981,6.5025,6.5059,6.5129,6.5121,6.5156,6.5139,6.5139,6.5219,6.5236,6.5282,6.5304,6.5288,6.5399,6.5378,6.5341,6.5277,6.539,6.5433,6.5451,6.5213,6.5211,6.521,6.5208,0,0,6.5051,6.5085,6.5106,6.5125,6.5155,6.52,6.5266,6.5312,6.5342,6.5373,6.5426,6.5497,6.5462,6.5486,6.5471,6.5517,6.5627,6.5473,6.5474,6.55,6.5747,6.5775,6.5796,6.5606,6.5609,6.5612,6.5744,0,6.5188,6.5306,6.5292,6.5404,6.5457,6.5416,6.5474,6.5497,6.5499,6.5542,6.5543,6.5593,6.5544,6.5558,6.5602,6.5604,6.5676,6.5594,6.5653,6.5656,6.5647,6.5818,6.5848,6.5972,6.5761,6.5764,6.5766,0,6.5364,6.5402,6.5519,6.5539,6.5561,6.5613,6.5653,6.5696,6.5721,6.5718,6.5745,6.5721,6.5785,6.5721,6.5808,6.5753,6.5776,6.578,6.5784,6.5788,6.5717,6.5826,6.6012,6.603,6.5793,6.5791,6.5789,0,6.5486,6.5566,6.5646,6.5663,6.569,6.5727,6.5739,6.576,6.5788,6.5822,6.584,6.5881,6.5903,6.5934,6.592,6.5876,6.6009,6.5944,6.6007,6.6007,6.6036,6.6034,6.6227,6.6053,6.6053,6.6053,6.6052,0,6.5639,6.5712,6.5701,6.575,6.5829,6.5812,6.589,6.5897,6.5916,6.5964,6.593,6.5975,6.5956,6.5999,6.5989,6.6061,6.6071,6.607,6.6066,6.6072,6.6072,6.6086,6.6077,6.6057,6.6056,6.6055,6.6055,0,6.5789,6.5785,6.5869,6.5887,6.5893,6.5951,6.5964,6.6009,6.6008,6.6068,6.6081,6.6079,6.6128,6.6118,6.6172,6.6165,6.6254,6.624,6.6247,6.6243,6.6305,6.6299,6.6513,6.6539,6.635,6.6351,6.6353,0,6.5887,6.5942,6.5966,6.5996,6.6011,6.606,6.6089,6.6073,6.6103,6.6134,6.6174,6.622,6.6256,6.6336,6.6337,6.6377,6.6363,6.6435,6.6369,6.6373,6.6362,6.6359,6.6363,6.6448,6.645,6.6452,6.6454,0,6.606,6.6055,6.6098,6.614,6.6175,6.6207,6.6235,6.6261,6.6247,6.6282,6.6332,6.636,6.6415,6.646,6.6497,6.6507,6.6477,6.6475,6.6491,6.6497,6.6498,6.6497,6.6281,6.647,6.6468,6.6467,6.6466,6.6465,6.6185,6.6231,6.6255,6.6303,6.6323,6.635,6.6392,6.6396,6.6438,6.6482,6.647,6.6526,6.6547,6.6593,6.6608,6.665,6.6622,6.6647,6.6652,6.6658,6.6665,6.6492,6.6657,6.6656,6.6656,6.6655,6.6655,0,6.6355,6.6368,6.6412,6.6453,6.6491,6.6461,6.6491,6.6523,6.6574,6.6596,6.6632,6.6688,6.6732,6.6737,6.6777,6.6809,6.6797,6.682,6.6817,6.6819,6.6688,6.6669,6.683,6.683,6.683,6.683,6.683,6.683,6.6447,6.6523,6.6521,6.6605,6.6617,6.6673,6.6692,6.6715,6.6733,6.6798,6.6834,6.6838,6.6852,6.6893,6.693,6.693,6.6946,6.6975,6.6969,6.6846,6.6829,6.6812,6.6794,6.6979,6.6979,6.7097,6.7098,6.7099]}]]